Change the Weather History Date:

Friday, June 21, 2013

  Actual Average Record
Temperature  
Mean Temperature 72 °F -  
Max Temperature 81 °F 76 °F 88 °F (2003)
Min Temperature 62 °F 56 °F 38 °F (1992)
Cooling Degree Days 6    
Growing Degree Days 22 (Base 50)    
Moisture  
Dew Point 64 °F    
Average Humidity 80    
Maximum Humidity 100    
Minimum Humidity 54    
Precipitation  
Precipitation 2.98 in - - ()
Sea Level Pressure  
Sea Level Pressure 29.89 in    
Wind  
Wind Speed 11 mph (NNE)    
Max Wind Speed 41 mph    
Max Gust Speed 69 mph    
Visibility 7 miles    
Events Fog , Rain , Thunderstorm    
Averages and records for this station are not official NWS values.
T = Trace of Precipitation, MM = Missing Value Source: NWS Daily Summary

Daily Weather History Graph

Daily Weather History Graph

Search for Another Location

Airport or City:

Trip Planner

Search our weather history database for the weather conditions in past years. The results will help you decide how hot, cold, wet, or windy it might be!

Date:

Astronomy

Jun. 21, 2013 Rise Set
Actual Time 5:26 AM CDT 9:04 PM CDT
Civil Twilight 4:48 AM CDT 9:41 PM CDT
Nautical Twilight 3:59 AM CDT 10:31 PM CDT
Astronomical Twilight 2:52 AM CDT 11:38 PM CDT
Moon 7:12 PM CDT (6/21) 3:46 AM CDT (6/21)
Length of Visible Light 16h 52m
Length of Day
15h 37m
Waxing Gibbous, 95% of the Moon is Illuminated
Jun 21
Waxing Gibbous
Jun 23
Full
Jun 29
Last Quarter
Jul 8
New
Jul 15
First Quarter

Hourly Weather History & Observations

Time (CDT) Temp. Heat Index Dew Point Humidity Pressure Visibility Wind Dir Wind Speed Gust Speed Precip Events Conditions
12:53 AM 81.0 °F 82.2 °F 63.0 °F 54% 29.83 in 10.0 mi SSE 11.5 mph - N/A   Overcast
1:53 AM 80.1 °F 81.5 °F 63.0 °F 56% 29.75 in 10.0 mi SE 16.1 mph - N/A   Scattered Clouds
2:35 AM 73.4 °F - 66.2 °F 78% 29.77 in 2.5 mi South 8.1 mph - 0.16 in Rain , Thunderstorm Thunderstorms and Rain
2:46 AM 71.6 °F - 68.0 °F 88% 29.80 in 1.0 mi Variable 6.9 mph - 0.42 in Rain , Thunderstorm Heavy Thunderstorms and Rain
2:53 AM 72.0 °F - 68.0 °F 87% 29.77 in 1.8 mi East 8.1 mph - 0.55 in Rain , Thunderstorm Heavy Thunderstorms and Rain
3:00 AM 71.6 °F - 68.0 °F 88% 29.76 in 2.5 mi East 16.1 mph - 0.15 in Rain , Thunderstorm Heavy Thunderstorms and Rain
3:07 AM 71.6 °F - 68.0 °F 88% 29.75 in 3.0 mi ESE 9.2 mph - 0.17 in Rain , Thunderstorm Light Thunderstorms and Rain
3:32 AM 71.6 °F - 68.0 °F 88% 29.71 in 7.0 mi East 8.1 mph 20.7 mph 0.20 in Rain , Thunderstorm Light Thunderstorms and Rain
3:36 AM 71.6 °F - 66.2 °F 83% 29.78 in 2.0 mi WSW 25.3 mph 36.8 mph 0.31 in Rain , Thunderstorm Light Thunderstorms and Rain
3:41 AM 69.8 °F - 66.2 °F 88% 29.82 in 0.8 mi NW 31.1 mph 44.9 mph 0.51 in Rain , Thunderstorm Heavy Thunderstorms and Rain
3:43 AM 69.8 °F - 66.2 °F 88% 29.80 in 0.8 mi North 23.0 mph 44.9 mph 0.59 in Rain , Thunderstorm Heavy Thunderstorms and Rain
3:48 AM 68.0 °F - 64.4 °F 88% 29.85 in 1.0 mi NNW 18.4 mph 44.9 mph 0.65 in Rain , Thunderstorm Heavy Thunderstorms and Rain
3:53 AM 68.0 °F - 63.0 °F 84% 29.82 in 2.5 mi North 17.3 mph 31.1 mph 0.67 in Rain , Thunderstorm Thunderstorms and Rain
4:00 AM 66.2 °F - 62.6 °F 88% 29.86 in 4.0 mi North 11.5 mph 23.0 mph 0.03 in Rain , Thunderstorm Heavy Thunderstorms and Rain
4:51 AM 66.2 °F - 62.6 °F 88% 29.86 in 7.0 mi North 17.3 mph 26.5 mph 0.09 in Rain Rain
4:53 AM 66.9 °F - 62.1 °F 84% 29.85 in 7.0 mi NNW 15.0 mph 26.5 mph 0.10 in Rain Rain
5:01 AM 66.2 °F - 62.6 °F 88% 29.87 in 7.0 mi North 20.7 mph 28.8 mph 0.01 in Rain , Thunderstorm Thunderstorms and Rain
5:16 AM 66.2 °F - 62.6 °F 88% 29.88 in 9.0 mi North 15.0 mph 27.6 mph 0.04 in Rain Light Rain
5:53 AM 66.0 °F - 61.0 °F 84% 29.88 in 10.0 mi ENE 6.9 mph - 0.08 in Rain Light Rain
6:53 AM 66.0 °F - 62.1 °F 87% 29.79 in 10.0 mi NNW 5.8 mph - 0.01 in   Clear
7:53 AM 66.0 °F - 63.0 °F 90% 29.84 in 10.0 mi SSW 10.4 mph - N/A   Clear
8:53 AM 68.0 °F - 63.0 °F 84% 29.87 in 10.0 mi Calm Calm - N/A   Partly Cloudy
9:39 AM 69.8 °F - 62.6 °F 78% 29.94 in 10.0 mi WSW 5.8 mph - N/A   Mostly Cloudy
10:00 AM 71.6 °F - 62.6 °F 73% 29.92 in 10.0 mi West 3.5 mph - N/A   Unknown
10:27 AM 71.6 °F - 62.6 °F 73% 29.92 in 10.0 mi WNW 5.8 mph - N/A   Overcast
10:50 AM 71.6 °F - 62.6 °F 73% 29.93 in 10.0 mi West 5.8 mph - N/A   Overcast
10:53 AM 72.0 °F - 63.0 °F 73% 29.91 in 10.0 mi West 6.9 mph - N/A   Overcast
11:20 AM 73.4 °F - 60.8 °F 65% 29.92 in 10.0 mi Calm Calm - N/A   Mostly Cloudy
11:53 AM 75.0 °F - 62.1 °F 64% 29.90 in 10.0 mi NNW 5.8 mph - N/A   Mostly Cloudy
12:36 PM 75.2 °F - 60.8 °F 61% 29.92 in 10.0 mi Calm Calm - N/A   Scattered Clouds
12:53 PM 75.9 °F - 62.1 °F 62% 29.91 in 10.0 mi Variable 5.8 mph - N/A   Scattered Clouds
1:03 PM 75.2 °F - 62.6 °F 65% 29.92 in 10.0 mi Variable 5.8 mph - N/A   Mostly Cloudy
1:53 PM 77.0 °F - 63.0 °F 62% 29.92 in 10.0 mi East 5.8 mph - N/A   Scattered Clouds
2:53 PM 78.1 °F - 63.0 °F 60% 29.91 in 10.0 mi Variable 4.6 mph - N/A   Clear
3:53 PM 79.0 °F - 63.0 °F 58% 29.90 in 10.0 mi Calm Calm - N/A   Overcast
4:53 PM 80.1 °F 81.9 °F 64.9 °F 60% 29.88 in 10.0 mi NE 6.9 mph - N/A   Scattered Clouds
5:53 PM 79.0 °F - 66.0 °F 64% 29.93 in 10.0 mi ENE 3.5 mph - N/A   Overcast
6:53 PM 78.1 °F - 64.9 °F 64% 29.95 in 10.0 mi East 6.9 mph - N/A   Overcast
7:49 PM 71.6 °F - 64.4 °F 78% 30.08 in 1.0 mi WNW 41.4 mph 69.0 mph 0.23 in Rain Heavy Rain
7:53 PM 64.9 °F - 60.1 °F 84% 30.09 in 0.2 mi WNW 35.7 mph 69.0 mph 0.76 in Rain Heavy Rain
7:58 PM 62.6 °F - 60.8 °F 94% 30.10 in 0.2 mi WNW 17.3 mph 63.3 mph 0.31 in Fog , Rain Heavy Rain
8:07 PM 62.6 °F - 62.6 °F 100% 30.08 in 0.5 mi WNW 6.9 mph 25.3 mph 0.68 in Fog , Rain Heavy Rain
8:13 PM 64.4 °F - 62.6 °F 94% 30.07 in 1.2 mi Calm Calm - 0.73 in Rain Heavy Rain
8:28 PM 64.4 °F - 62.6 °F 94% 29.98 in 2.5 mi NE 8.1 mph - 0.80 in Rain Rain
8:35 PM 64.4 °F - 62.6 °F 94% 29.96 in 4.0 mi NE 9.2 mph - 0.81 in Rain Light Rain
8:53 PM 66.0 °F - 63.0 °F 90% 29.96 in 5.0 mi East 4.6 mph - 0.81 in   Scattered Clouds
9:50 PM 69.8 °F - 66.2 °F 88% 29.95 in 10.0 mi SE 6.9 mph - 0.00 in Rain , Thunderstorm Light Rain
9:53 PM 70.0 °F - 66.9 °F 90% 29.96 in 10.0 mi SE 4.6 mph - 0.00 in Rain , Thunderstorm Light Rain
10:05 PM 69.8 °F - 66.2 °F 88% 29.94 in 10.0 mi East 9.2 mph - 0.00 in   Scattered Clouds
10:53 PM 70.0 °F - 66.0 °F 87% 29.87 in 10.0 mi ESE 10.4 mph - 0.00 in   Clear
11:53 PM 70.0 °F - 66.0 °F 87% 29.93 in 10.0 mi West 15.0 mph 19.6 mph N/A   Clear